Le nostre stazioni meteo in Italia

Pubblicità
Il mio iltempo24.it
Brescia/Ghedi, Italia (16088): Temperatura & dewpoint: 17.01.2019 05:00:00 - 23.01.2019 05:00:00 (CET)Brescia/Ghedi, Italia (16088): velocità del vento: 17.01.2019 05:00:00 - 23.01.2019 05:00:00 (CET)Brescia/Ghedi, Italia (16088): direzione del vento: 17.01.2019 05:00:00 - 23.01.2019 05:00:00 (CET)Brescia/Ghedi, Italia (16088): reduced air pressure: 17.01.2019 05:00:00 - 23.01.2019 05:00:00 (CET)Brescia/Ghedi, Italia (16088): visibility: 17.01.2019 05:00:00 - 23.01.2019 05:00:00 (CET)
Data & Tempo tt [°C] td [°C] ff [km/h] ff [kn] dd ppp [hPa] vv [km]
23.01.2019 05:00:00 1,0 -0,8 4 2 E 1000,3 8
23.01.2019 04:00:00 0,0 -1,9 5 3 E 1001,2 8
23.01.2019 03:00:00 -0,8 -2,8 2 1 SO 1001,8 8
23.01.2019 02:00:00 -1,0 -3,2 2 1 SO 1002,4 6
23.01.2019 01:00:00 0,0 -2,2 4 2 N 1002,6 6
23.01.2019 00:00:00 0,2 -2,0 4 2 NNO 1003,3 6
22.01.2019 23:00:00 0,4 -2,3 4 2 N 1003,4 6
22.01.2019 22:00:00 2,0 -0,8 4 2 S 1003,8 8
22.01.2019 21:00:00 1,4 -1,5 8 4 ONO 1004,2 8
22.01.2019 20:00:00 2,0 -1,4 5 3 O 1004,6 7
22.01.2019 19:00:00 2,6 -1,9 5 3 OSO 1004,9 7
22.01.2019 18:00:00 3,4 -2,1 5 3 OSO 1004,9 8
22.01.2019 17:00:00 4,5 -2,6 8 4 OSO 1005,3 8
22.01.2019 16:00:00 5,5 -2,3 11 6 OSO 1005,9 10
22.01.2019 15:00:00 6,0 -2,1 9 5 O 1006,7 10
22.01.2019 14:00:00 6,0 -1,9 8 4 O 1008,1 10
22.01.2019 13:00:00 5,6 -1,8 8 4 SO 1009,4 10
22.01.2019 12:00:00 5,2 -1,5 4 2 SO 1010,4 15
22.01.2019 11:00:00 3,0 -3,3 2 1 SE 1011,5 15
22.01.2019 10:00:00 -1,4 -3,9 2 1 N 1012,2 15
22.01.2019 09:00:00 -4,6 -6,6 4 2 NNE 1012,6 15
22.01.2019 08:00:00 -5,1 -7,4 4 2 N 1012,8 10
22.01.2019 07:00:00 -6,8 -9,4 4 2 N 1013,1 8
22.01.2019 06:00:00 -5,0 -7,6 4 2 ENE 1013,5 8
22.01.2019 05:00:00 -6,0 -8,1 4 2 NE 1014,1 8
22.01.2019 04:00:00 -5,6 -8,0 2 1 NE 1015,1 8
22.01.2019 03:00:00 -5,2 -7,6 4 2 NNE 1015,6 6
22.01.2019 02:00:00 -4,0 -6,6 4 2 N 1016,8 5
22.01.2019 01:00:00 -3,4 -6,0 4 2 N 1016,8 5
22.01.2019 00:00:00 -4,0 -5,4 8 4 NE 1017,0 5
21.01.2019 23:00:00 -3,0 -4,5 5 3 NNE 1016,9 5
21.01.2019 22:00:00 -1,0 -2,9 8 4 N 1016,9 6
21.01.2019 21:00:00 0,0 -2,2 4 2 ONO 1016,9 8
21.01.2019 20:00:00 0,4 -2,3 4 2 O 1016,9 8
21.01.2019 19:00:00 0,4 -3,5 8 4 NNO 1016,8 8
21.01.2019 18:00:00 1,8 -3,1 4 2 ONO 1016,7 8
21.01.2019 17:00:00 2,0 -3,5 4 2 OSO 1016,8 8
21.01.2019 16:00:00 2,6 -3,7 4 2 SO 1016,9 8
21.01.2019 15:00:00 3,0 -5,4 4 2 SO 1017,1 10
21.01.2019 14:00:00 2,8 -4,9 4 2 SO 1017,6 10
21.01.2019 13:00:00 2,0 -5,0 4 2 S 1017,9 10
21.01.2019 12:00:00 1,4 -4,9 4 2 OSO 1018,3 10
21.01.2019 11:00:00 -1,0 -3,5 5 3 ONO 1018,6 8
21.01.2019 10:00:00 -2,0 -4,0 4 2 NNO 1018,4 8
21.01.2019 09:00:00 -3,9 -6,0 4 2 NE 1018,2 7
21.01.2019 08:00:00 -3,2 -4,7 5 3 NE 1018,0 5
21.01.2019 07:00:00 -3,1 -4,8 5 3 ENE 1018,0 5
21.01.2019 06:00:00 -3,0 -4,0 4 2 NE 1017,9 4,0
21.01.2019 05:00:00 -4,0 -5,1 5 3 NNE 1018,0 4,0
21.01.2019 04:00:00 -3,1 -4,4 8 4 N 1018,0 4,0
21.01.2019 03:00:00 -2,4 -3,8 4 2 NO 1017,9 4,0
21.01.2019 02:00:00 -1,9 -3,2 2 1 OSO 1017,9 5
21.01.2019 01:00:00 -1,0 -2,4 8 4 NNE 1017,9 5
21.01.2019 00:00:00 -1,5 -2,6 4 2 NE 1017,9 5
20.01.2019 23:00:00 -1,6 -2,7 5 3 NE 1017,7 5
20.01.2019 22:00:00 -1,1 -2,4 5 3 N 1017,6 5
20.01.2019 21:00:00 -1,0 -2,4 8 4 N 1016,9 5
20.01.2019 20:00:00 2,0 -0,8 5 3 NE 1016,2 5
20.01.2019 19:00:00 3,0 -0,5 4 2 E 1016,1 6
20.01.2019 18:00:00 4,2 -0,8 4 2 SSO 1015,6 6
20.01.2019 17:00:00 5,0 -2,6 5 3 S 1015,4 8
20.01.2019 16:00:00 6,0 -2,1 5 3 SSO 1015,3 10
20.01.2019 15:00:00 5,9 -1,7 5 3 SSO 1015,3 10
20.01.2019 14:00:00 5,9 -0,8 8 4 S 1015,2 10
20.01.2019 13:00:00 5,0 -1,7 5 3 S 1015,7 10
20.01.2019 12:00:00 2,8 -2,1 5 3 ENE 1016,2 10
20.01.2019 11:00:00 0,4 -1,0 2 1 SSE 1016,3 8
20.01.2019 10:00:00 -1,2 -2,0 5 3 NNE 1016,2 6
20.01.2019 09:00:00 -2,0 -3,1 4 2 NE 1015,9 5
20.01.2019 08:00:00 -1,0 -2,6 4 2 ENE 1015,6 6
20.01.2019 07:00:00 0,2 -1,9 2 1 NE 1015,3 10
20.01.2019 06:00:00 0,8 -1,4 5 3 NE 1015,5 10
20.01.2019 05:00:00 0,2 -1,4 8 4 NE 1016,0 10
20.01.2019 04:00:00 0,0 -1,6 5 3 NE 1016,2 10
20.01.2019 03:00:00 0,0 -1,7 5 3 NE 1016,3 10
20.01.2019 02:00:00 0,0 -1,3 5 3 ENE 1016,4 10
20.01.2019 01:00:00 0,0 -1,4 4 2 E 1016,4 10
20.01.2019 00:00:00 0,0 -1,7 4 2 ENE 1016,8 10
19.01.2019 23:00:00 0,8 -1,4 4 2 N 1016,8 10
19.01.2019 22:00:00 1,6 -1,1 2 1 ONO 1016,7 10
19.01.2019 21:00:00 2,2 -1,1 2 1 NNO 1016,7 10
19.01.2019 20:00:00 2,3 -0,8 2 1 SE 1016,6 10
19.01.2019 19:00:00 2,8 -1,9 2 1 NE 1016,7 10
19.01.2019 18:00:00 3,9 -2,5 2 1 NNE 1016,6 10
19.01.2019 17:00:00 4,9 -2,7 4 2 NO 1016,6 10
19.01.2019 16:00:00 5,0 -3,5 4 2 NO 1016,7 10
19.01.2019 15:00:00 4,9 -3,1 8 4 NNO 1016,8 10
19.01.2019 14:00:00 4,9 -3,4 5 3 NNO 1017,2 10
19.01.2019 13:00:00 4,3 -2,1 13 7 NNO 1017,8 10
19.01.2019 12:00:00 4,7 -3,3 9 5 NO 1018,4 10
19.01.2019 11:00:00 4,0 -3,7 4 2 ONO 1018,4 10
19.01.2019 10:00:00 3,8 -3,0 4 2 ONO 1017,6 10
19.01.2019 09:00:00 3,1 -3,7 4 2 NO 1016,9 10
19.01.2019 08:00:00 3,2 -3,8 5 3 S 1017,4 20
19.01.2019 07:00:00 3,2 -2,7 5 3 NNE 1017,1 20
19.01.2019 06:00:00 3,2 -2,7 5 3 ESE 1017,3 20
19.01.2019 05:00:00 3,4 -2,1 5 3 E 1017,3 20
19.01.2019 04:00:00 3,8 -2,2 11 6 ESE 1017,4 20
19.01.2019 03:00:00 4,0 -3,3 4 2 E 1017,4 20
19.01.2019 02:00:00 4,0 -2,8 8 4 E 1017,4 20
19.01.2019 01:00:00 4,2 -3,1 15 8 E 1017,2 20
19.01.2019 00:00:00 4,0 -3,1 15 8 E 1017,3 20
18.01.2019 23:00:00 4,4 -2,2 13 7 E 1016,6 20
18.01.2019 22:00:00 4,8 -1,2 9 5 E 1016,4 20
18.01.2019 21:00:00 3,2 1,1 8 4 NNE 1016,1 20
18.01.2019 20:00:00 3,4 1,3 5 3 ENE 1016,0 10
18.01.2019 19:00:00 4,0 1,4 5 3 ESE 1016,0 10
18.01.2019 18:00:00 4,6 1,8 11 6 ESE 1015,5 10
18.01.2019 17:00:00 5,8 2,8 18 10 ESE 1014,7 10
18.01.2019 16:00:00 7,0 3,6 18 10 SE 1013,7 5
18.01.2019 15:00:00 7,2 2,9 21 11 ESE 1013,2 5
18.01.2019 14:00:00 6,2 3,7 11 6 SE 1012,9 2,5
18.01.2019 13:00:00 7,0 3,6 22 12 E 1012,7 4,0
18.01.2019 12:00:00 6,5 2,6 9 5 NNO 1012,3 5
18.01.2019 11:00:00 5,2 3,0 5 3 NO 1012,4 3,5
18.01.2019 10:00:00 5,0 3,0 8 4 ONO 1011,7 1,4
18.01.2019 09:00:00 4,0 2,2 5 3 OSO 1010,8 1,0
18.01.2019 08:00:00 4,0 2,2 5 3 OSO 1010,2 1,0
18.01.2019 07:00:00 4,2 2,4 5 3 OSO 1010,0 1,0
18.01.2019 06:00:00 4,2 2,4 4 2 OSO 1010,0 1,2
18.01.2019 05:00:00 4,2 2,4 4 2 SO 1010,2 1,5
18.01.2019 04:00:00 4,2 2,4 4 2 SO 1010,2 1,5
18.01.2019 03:00:00 4,2 2,6 8 4 O 1010,6 1,5
18.01.2019 02:00:00 4,2 2,6 8 4 O 1010,6 1,5
18.01.2019 01:00:00 4,4 2,9 5 3 O 1011,0 1,5
18.01.2019 00:00:00 5,0 3,5 8 4 O 1011,1 1,5
17.01.2019 23:00:00 5,0 3,5 8 4 O 1011,4 1,2
17.01.2019 22:00:00 5,0 3,5 5 3 ONO 1011,7 1,2
17.01.2019 21:00:00 4,9 3,2 9 5 NO 1011,8 1,2
17.01.2019 20:00:00 5,0 3,7 4 2 O 1012,1 1,2
17.01.2019 19:00:00 5,1 3,9 4 2 O 1012,1 0,8
17.01.2019 18:00:00 5,4 4,8 2 1 OSO 1012,3 1,0
17.01.2019 17:00:00 6,0 6,0 4 2 ONO 1012,5 1,4
17.01.2019 16:00:00 6,2 6,1 8 4 E 1012,7 2,5
17.01.2019 15:00:00 6,0 5,9 8 4 E 1013,4 2,5
17.01.2019 14:00:00 5,9 5,6 4 2 N 1014,3 2,3
17.01.2019 13:00:00 5,6 4,9 9 5 ENE 1014,5 3,0
17.01.2019 12:00:00 5,2 4,3 8 4 ENE 1015,5 4,0
17.01.2019 11:00:00 5,2 3,2 2 1 S 1016,1 4,5
17.01.2019 10:00:00 5,4 3,2 8 4 ENE 1015,8 6
17.01.2019 09:00:00 5,0 3,0 8 4 E 1015,6 6
17.01.2019 08:00:00 4,8 2,5 8 4 E 1016,2 6
17.01.2019 07:00:00 4,0 1,7 5 3 E 1016,2 10
17.01.2019 06:00:00 4,2 1,7 9 5 E 1016,4 10
17.01.2019 05:00:00 5,0 2,7 2 1 ESE 1017,4 10

tt = Temperatura
td = dewpoint
ff = velocità del vento
dd = direzione del vento
ppp = reduced air pressure
vv = visibility

Stazioni seguenti

WeatherPro
AMSI
MeteoEarth